This is the latest recevied weather packets stored in our database for station/object N3SBK. If no packets are shown the sender has not sent any weather packets the latest 10 day(s).
| Time | Temp. | Humidity | Pressure | Rain* | Wind** | Luminosity | Snow |
|---|---|---|---|---|---|---|---|
| 1777687155 | 5.56° C | 92% | 1004.6 hPa | 0 mm | - | 0 W/m² | - |
| 1777686853 | 5.56° C | 93% | 1004.6 hPa | 0 mm | - | 0 W/m² | - |
| 1777686550 | 5.56° C | 93% | 1004.5 hPa | 0 mm | - | 0 W/m² | - |
| 1777686246 | 6.11° C | 93% | 1004.4 hPa | 0 mm | - | 0 W/m² | - |
| 1777685943 | 6.11° C | 93% | 1004.4 hPa | 0 mm | - | 0 W/m² | - |
| 1777685638 | 6.11° C | 93% | 1004.4 hPa | 0 mm | - | 0 W/m² | - |
| 1777685335 | 5.56° C | 92% | 1004.4 hPa | 0 mm | - | 0 W/m² | - |
| 1777685033 | 5.56° C | 92% | 1004.6 hPa | 0 mm | - | 0 W/m² | - |
| 1777684730 | 6.11° C | 92% | 1004.3 hPa | 0 mm | - | 0 W/m² | - |
| 1777684426 | 6.11° C | 92% | 1004.2 hPa | 0 mm | - | 0 W/m² | - |
| 1777684123 | 6.11° C | 91% | 1004.1 hPa | 1.27 mm | - | 0 W/m² | - |
| 1777683820 | 6.11° C | 91% | 1003.9 hPa | 3.05 mm | - | 0 W/m² | - |
| 1777683517 | 6.67° C | 90% | 1004 hPa | 1.78 mm | - | 0 W/m² | - |
| 1777683215 | 7.22° C | 92% | 1003.9 hPa | 1.27 mm | - | 0 W/m² | - |
| 1777682912 | 7.22° C | 92% | 1003.3 hPa | 1.27 mm | - | 0 W/m² | - |
| 1777682608 | 6.67° C | 91% | 1003 hPa | 0 mm | - | 0 W/m² | - |
| 1777682306 | 6.67° C | 91% | 1002.6 hPa | 0 mm | - | 0 W/m² | - |
| 1777682003 | 7.22° C | 91% | 1002.4 hPa | 0 mm | - | 0 W/m² | - |
| 1777681699 | 7.22° C | 91% | 1002.7 hPa | 0 mm | - | 0 W/m² | - |
| 1777681396 | 7.22° C | 91% | 1002.7 hPa | 0 mm | - | 0 W/m² | - |
| 1777681093 | 7.22° C | 91% | 1002.5 hPa | 0 mm | - | 1 W/m² | - |
| 1777680791 | 7.22° C | 91% | 1002.6 hPa | 0 mm | - | 1 W/m² | - |
| 1777680488 | 7.22° C | 91% | 1002.7 hPa | 0 mm | - | 3 W/m² | - |
| 1777680186 | 7.22° C | 91% | 1002.5 hPa | 0 mm | - | 4 W/m² | - |
| 1777679882 | 7.22° C | 91% | 1002.4 hPa | 0 mm | - | 5 W/m² | - |
* Rain latest hour (hover to see other rain measurements)
** Current wind speed in m/s (hover to see current wind gust speed)